sat.trackr.live / text

‹ back to catalog

GAOFEN-7

NORAD 44703 · 2019-072A

PAYLOAD ACTIVE UNKNOWN

§ Identity

Operator
Country
PRC
Launch date
2019-11-03
Launch site
TAISC
Launch vehicle
Mass (kg)
RCS (m²)

External: N2YO · Heavens-Above · Gunter

§ Orbital elements

Epoch: 2026-09-20T04:25:54.559200Z

Period
94.66 min
Inclination
97.5622°
Eccentricity
0.0020009
Mean motion
15.21312906 rev/d
Perigee alt
488.1 km
Apogee alt
515.6 km
Semi-major
6,880.0 km
B*
1.1758e-4
RAAN
324.2300°
Arg perigee
77.3053°
Mean anomaly
283.0417°
Rev number
38,208

§ Raw data

GAOFEN-71 44703U 19072A   26263.18465925  .00002572  00000+0  11758-3 0  99962 44703  97.5622 324.2300 0020009  77.3053 283.0417 15.21312906382087

JSON: /api/v1/satellites/44703 · /tle

For live sub-satellite position, see the globe view (requires WebGL).

§ Visibility from observer

Set your observer location to see the next 7 days of passes ≥ 10°. The values pass through the URL so the page stays shareable.

No JS? Fill the form by hand. The geolocation button needs JavaScript.

§ Radio — SatNOGS DB

ModeDescriptionDownlinkUplink
LoRa LoRa 400.450 MHz
BPSK S-band telemetry 2.252 GHz
BPSK Telemetry 2.202 GHz

3 transmitters · refreshed weekly from db.satnogs.org